[[{"header":{"parameterUnit":"m.s-1","parameterCategory":1,"la1":30.2991,"la2":30.254,"lo1":-89.0895,"lo2":-89.0444,"dy":0.0017,"dx":0.0017,"nx":28,"ny":28,"refTime":"2025-05-26T21:00:00:Z","depth":0,"parameterNumber":2,"parameterNumberName":"U-component_of_WINDS"},"data":[0,0,0,0,0,0,0,0,0,0,0,0,0,0,0,0,0,0,0,0,0,0,0,0,0,0,0,0,0,0,0,0,0,0,0,0,0,0,0,0,0,0,0,0,0,0,0,0,0,0,0,0,0,0,0,0,0,0,0.6101,0.6101,0,0.6176,0.6177,0.6178,0.6142,0.614,0.6138,0.6136,0.6216,0.6219,0.6223,0,0,0,0,0,0,0,0,0,0,0,0,0,0.5927,0.5931,0.61,0.6101,0.6102,0.6176,0.6177,0.6178,0.6142,0.614,0.6138,0.6135,0.6214,0.6219,0.6224,0,0,0,0,0,0,0,0,0,0,0,0,0,0.6003,0.5932,0.61,0.6093,0.6093,0.6176,0.6177,0.6178,0.6143,0.614,0.6137,0.6134,0.6213,0.6218,0.6224,0.6318,0,0,0.6242,0.6245,0,0,0,0,0,0,0,0,0.5998,0.6009,0.6093,0.6094,0.6094,0.6146,0.6145,0.6225,0.6143,0.6124,0.6136,0.6133,0.6195,0.6202,0.6223,0.6322,0.6325,0.6243,0.6246,0.6249,0.625,0,0,0,0,0,0,0,0.5993,0.6006,0.613,0.6095,0.6095,0.6087,0.6094,0.616,0.6175,0.6126,0.6123,0.6132,0.6195,0.6217,0.6224,0.6326,0.6242,0.6248,0.6251,0.6254,0.6507,0.651,0,0,0,0,0,0,0.5988,0.6001,0.6128,0.6133,0.6038,0.6092,0.6101,0.6133,0.6174,0.6178,0.6135,0.613,0.6209,0.6218,0.6227,0.634,0.6249,0.6254,0.6258,0.6503,0.6507,0.6511,0,0,0,0,0,0,0.5984,0.6,0.6125,0.6066,0.6082,0.6098,0.6135,0.6136,0.6158,0.6181,0.6184,0.6155,0.6207,0.6219,0.6296,0.6342,0.6257,0.6262,0.65,0.6505,0.6509,0.6567,0,0,0,0,0,0,0.5979,0.5998,0.6034,0.6067,0.6085,0.6192,0.6137,0.6139,0.6168,0.6163,0.6201,0.6204,0.6205,0.6287,0.6301,0.6349,0.6267,0.6495,0.6502,0.6507,0.6561,0.6573,0.6584,0,0,0,0,0,0.5973,0.6048,0.6036,0.6051,0.613,0.6195,0.6205,0.6204,0.6172,0.6208,0.6223,0.6203,0.6335,0.6295,0.6311,0.6361,0.6493,0.65,0.6507,0.6556,0.6571,0.6583,0,0,0,0,0,0,0.602,0.6052,0.6039,0.6127,0.6158,0.6189,0.6234,0.622,0.6262,0.6256,0.6253,0.6262,0.6342,0.6359,0.6315,0.6454,0.6409,0.6419,0.6441,0.6455,0.6466,0.6461,0.6272,0,0,0,0,0,0.604,0.609,0.6115,0.619,0.6206,0.6218,0.6246,0.6243,0.6276,0.6289,0.6309,0.6343,0.6391,0.6424,0.647,0.6563,0.6571,0.6605,0.6616,0.6625,0.6635,0.6686,0.6702,0.6534,0.6534,0.6534,0,0,0.6083,0.6107,0.6139,0.62,0.6224,0.6276,0.6229,0.6286,0.6325,0.6298,0.6372,0.6388,0.6425,0.651,0.6549,0.6527,0.6683,0.6634,0.6642,0.6647,0.6695,0.6711,0.6725,0.6539,0.6538,0.6538,0,0,0.6188,0.6211,0.6276,0.63,0.6337,0.6344,0.636,0.6392,0.6402,0.6475,0.6456,0.6502,0.6586,0.6614,0.6639,0.6753,0.6737,0.6768,0.6828,0.6877,0.6891,0.6902,0.6944,0.6959,0.6777,0.6778,0.6778,0,0.6237,0.6315,0.6311,0.637,0.6398,0.6374,0.644,0.6464,0.6515,0.6535,0.6509,0.6614,0.6637,0.6729,0.6757,0.6777,0.6795,0.6765,0.6889,0.6901,0.6911,0.6951,0.6967,0.6781,0.6781,0.678,0.678,0,0.6373,0.6427,0.6475,0.6524,0.6557,0.6619,0.6625,0.6659,0.6653,0.6663,0.6738,0.6765,0.6816,0.6837,0.6832,0.6928,0.6914,0.6888,0.6843,0.6931,0.6969,0.6984,0.6786,0.6785,0.6784,0.6783,0,0,0.6511,0.6557,0.6574,0.6596,0.6635,0.6677,0.6738,0.6787,0.6817,0.6852,0.6904,0.6975,0.6952,0.698,0.6977,0.702,0.711,0.699,0.6991,0.7012,0.722,0.7239,0.7257,0.7099,0.7102,0.7104,0.7217,0,0.662,0.6727,0.6725,0.6824,0.6875,0.6852,0.6906,0.6935,0.6946,0.699,0.7001,0.7052,0.7017,0.7034,0.7076,0.7091,0.7152,0.7082,0.7148,0.7151,0.7141,0.7277,0.7298,0.7403,0.7231,0.7234,0.7236,0,0.6762,0.6801,0.6905,0.6937,0.6958,0.7005,0.7051,0.7093,0.7126,0.7131,0.7162,0.7152,0.7214,0.7166,0.7252,0.7205,0.7231,0.7242,0.7246,0.7254,0.72,0.7289,0.7437,0.7453,0.7258,0.7257,0.7255,0,0.6853,0.6932,0.7005,0.7024,0.7062,0.7097,0.7114,0.7144,0.7174,0.7214,0.7233,0.7279,0.7305,0.7341,0.7344,0.7309,0.7432,0.7383,0.7438,0.7439,0.7467,0.7466,0.7623,0.7482,0.7481,0.7481,0.7481,0,0.6976,0.7041,0.7047,0.7092,0.7164,0.7161,0.7233,0.7247,0.7274,0.7322,0.7305,0.735,0.735,0.7396,0.7399,0.7471,0.7482,0.7488,0.7488,0.7491,0.749,0.7509,0.7503,0.7485,0.7484,0.7483,0.7483,0,0.7092,0.7098,0.7176,0.7205,0.7214,0.7266,0.7291,0.7334,0.7342,0.7403,0.7417,0.743,0.7484,0.749,0.7552,0.7554,0.7641,0.7632,0.763,0.7629,0.7684,0.7679,0.786,0.7884,0.7726,0.7728,0.7729,0,0.717,0.722,0.7254,0.7284,0.7304,0.7353,0.7383,0.7382,0.7414,0.7455,0.7494,0.7545,0.7586,0.7673,0.7688,0.7736,0.773,0.7789,0.7737,0.7738,0.7732,0.773,0.7735,0.78,0.7802,0.7804,0.7805,0,0.7309,0.731,0.7354,0.74,0.7436,0.7472,0.7506,0.7532,0.7534,0.7571,0.7626,0.7658,0.7721,0.7772,0.7819,0.7837,0.7822,0.7821,0.7836,0.784,0.7837,0.7841,0.7659,0.7817,0.7816,0.7815,0.7814,0.7814,0.741,0.7453,0.7484,0.7534,0.7559,0.759,0.7632,0.7646,0.7691,0.7742,0.7738,0.7798,0.783,0.7891,0.7912,0.7959,0.7939,0.7962,0.7968,0.7973,0.798,0.7828,0.7967,0.7967,0.7967,0.7966,0.7966,0,0.755,0.7568,0.7614,0.7661,0.7701,0.7681,0.7717,0.7752,0.7805,0.7835,0.7876,0.7938,0.7988,0.8007,0.8056,0.809,0.8084,0.8103,0.8101,0.8106,0.7994,0.7976,0.8107,0.8107,0.8107,0.8107,0.8107,0.8107,0.7627,0.7699,0.7703,0.7788,0.7806,0.7865,0.7887,0.7916,0.794,0.8011,0.8052,0.8064,0.809,0.814,0.8185,0.8189,0.8209,0.8231,0.8232,0.8128,0.8114,0.81,0.8084,0.8235,0.8235,0.8341,0.8342,0.8342]},{"header":{"parameterUnit":"m.s-1","parameterCategory":1,"la1":30.2991,"la2":30.254,"lo1":-89.0895,"lo2":-89.0444,"dy":0.0017,"dx":0.0017,"nx":28,"ny":28,"refTime":"2025-05-26T21:00:00:Z","depth":0,"parameterNumber":3,"parameterNumberName":"V-component_of_WINDS"},"data":[0,0,0,0,0,0,0,0,0,0,0,0,0,0,0,0,0,0,0,0,0,0,0,0,0,0,0,0,0,0,0,0,0,0,0,0,0,0,0,0,0,0,0,0,0,0,0,0,0,0,0,0,0,0,0,0,0,0,5.9261,5.9261,0,5.9292,5.9292,5.9292,5.9256,5.9254,5.9253,5.9252,5.9278,5.928,5.9282,0,0,0,0,0,0,0,0,0,0,0,0,0,5.9166,5.9168,5.9261,5.9261,5.9262,5.9292,5.9292,5.9292,5.9256,5.9254,5.9252,5.9251,5.9278,5.928,5.9282,0,0,0,0,0,0,0,0,0,0,0,0,0,5.9203,5.9169,5.9261,5.9247,5.9246,5.9292,5.9292,5.9293,5.9256,5.9254,5.9252,5.925,5.9277,5.928,5.9283,5.9341,0,0,5.9292,5.9293,0,0,0,0,0,0,0,0,5.9201,5.9206,5.9249,5.9248,5.9247,5.9268,5.9268,5.9309,5.9257,5.9252,5.9251,5.9249,5.9276,5.9279,5.9289,5.9343,5.9344,5.9292,5.9294,5.9295,5.9296,0,0,0,0,0,0,0,5.9198,5.9205,5.9273,5.9249,5.9248,5.9238,5.9241,5.9276,5.9275,5.9252,5.925,5.9254,5.9275,5.9286,5.9289,5.9344,5.9292,5.9294,5.9296,5.9297,5.9448,5.945,0,0,0,0,0,0,5.9198,5.9203,5.9272,5.9274,5.9219,5.9241,5.9245,5.9263,5.9275,5.9274,5.9256,5.9252,5.9282,5.9286,5.929,5.936,5.9295,5.9298,5.9299,5.9446,5.9449,5.9451,0,0,0,0,0,0,5.9196,5.9205,5.9271,5.9238,5.9245,5.9245,5.9266,5.9265,5.9276,5.9277,5.9276,5.9268,5.9281,5.9286,5.9329,5.936,5.9299,5.9302,5.9443,5.9447,5.945,5.95,0,0,0,0,0,0,5.9194,5.9204,5.9227,5.9239,5.9247,5.9311,5.9268,5.9267,5.9282,5.9277,5.9288,5.9288,5.928,5.9325,5.9332,5.9363,5.9304,5.944,5.9445,5.9449,5.9495,5.9505,5.9512,0,0,0,0,0,5.919,5.9239,5.9229,5.9237,5.9277,5.9312,5.9317,5.9308,5.9284,5.9307,5.9308,5.9287,5.9356,5.933,5.9338,5.937,5.9438,5.9444,5.9448,5.9492,5.9503,5.9512,0,0,0,0,0,0,5.9229,5.924,5.9229,5.9283,5.9297,5.9306,5.9334,5.932,5.934,5.9335,5.9322,5.9324,5.9371,5.9375,5.9345,5.9428,5.9393,5.94,5.9423,5.9434,5.9442,5.944,5.9307,0,0,0,0,0,5.9244,5.9274,5.9281,5.9328,5.9336,5.9335,5.935,5.9342,5.9355,5.9361,5.9365,5.9378,5.9402,5.9418,5.9441,5.9496,5.9498,5.9522,5.9531,5.9538,5.9543,5.9573,5.9584,5.9468,5.9467,5.9467,0,0,5.9274,5.9284,5.9304,5.9336,5.9346,5.9376,5.934,5.9372,5.9394,5.9365,5.9407,5.9411,5.9424,5.9474,5.9496,5.9478,5.9576,5.9544,5.955,5.9551,5.9579,5.959,5.96,5.9471,5.947,5.947,0,0,5.9346,5.9357,5.9397,5.9409,5.9426,5.9425,5.9435,5.9447,5.9448,5.9491,5.947,5.9495,5.9537,5.9548,5.9559,5.9636,5.9618,5.9644,5.9687,5.9716,5.9726,5.9734,5.9761,5.9771,5.965,5.965,5.965,0,5.9381,5.9427,5.9419,5.9455,5.9469,5.9447,5.9487,5.9498,5.9521,5.9531,5.9512,5.9566,5.9573,5.9625,5.9644,5.9654,5.9664,5.9642,5.9725,5.9733,5.9741,5.9766,5.9777,5.9653,5.9653,5.9652,5.9652,0,5.947,5.9502,5.9532,5.9557,5.9576,5.9613,5.961,5.9629,5.962,5.9621,5.9664,5.9672,5.9697,5.9709,5.9699,5.976,5.9748,5.9728,5.9692,5.9755,5.9779,5.9789,5.9657,5.9656,5.9655,5.9655,0,0,5.9564,5.9586,5.9597,5.9609,5.9627,5.9651,5.9687,5.9713,5.9729,5.9746,5.9776,5.9813,5.9795,5.9807,5.9799,5.9825,5.9885,5.9801,5.9801,5.9816,5.9952,5.9967,5.9979,5.9874,5.9876,5.9877,5.9951,0,5.9635,5.97,5.9695,5.9756,5.9786,5.9766,5.9797,5.9811,5.9813,5.9837,5.9839,5.9866,5.9839,5.9847,5.9871,5.9873,5.9912,5.9868,5.99,5.9901,5.9896,5.9991,6.0007,6.0075,5.996,5.9962,5.9963,0,5.9726,5.9749,5.9814,5.9829,5.9841,5.987,5.9893,5.9917,5.9932,5.9932,5.9947,5.9935,5.997,5.9936,5.9984,5.9954,5.9967,5.997,5.9972,5.9974,5.9935,5.9994,6.0097,6.0107,5.9978,5.9976,5.9975,0,5.9788,5.9835,5.9879,5.989,5.9908,5.9929,5.9938,5.9951,5.9967,5.9987,5.9998,6.0021,6.0034,6.0052,6.0046,6.0021,6.0095,6.006,6.0095,6.0095,6.011,6.0109,6.0215,6.012,6.012,6.012,6.012,0,5.9867,5.9907,5.9908,5.9935,5.9979,5.9973,6.0017,6.0022,6.0035,6.0062,6.0046,6.0071,6.0063,6.0088,6.0083,6.0124,6.013,6.0129,6.0127,6.013,6.013,6.0138,6.0132,6.0123,6.0122,6.0122,6.0121,0,5.9943,5.9945,5.9993,6.0007,6.0012,6.0044,6.0056,6.0081,6.0083,6.0117,6.0125,6.0127,6.0155,6.0152,6.0183,6.018,6.0231,6.0223,6.0226,6.0224,6.0259,6.0255,6.0373,6.0387,6.0284,6.0285,6.0286,0,5.9993,6.0024,6.0043,6.0061,6.0072,6.0101,6.0118,6.0113,6.0132,6.0152,6.0175,6.0203,6.0224,6.0271,6.0274,6.0298,6.029,6.033,6.0293,6.0296,6.029,6.0288,6.0291,6.0336,6.0338,6.0339,6.0339,0,6.0081,6.0081,6.0108,6.0135,6.0157,6.0178,6.0196,6.0212,6.0209,6.023,6.026,6.0277,6.0311,6.0338,6.0361,6.0367,6.0353,6.0351,6.036,6.0363,6.0363,6.0363,6.0245,6.0348,6.0347,6.0347,6.0346,6.0346,6.0145,6.0172,6.019,6.022,6.0235,6.0253,6.0278,6.0284,6.031,6.0338,6.0333,6.0367,6.0382,6.0412,6.0421,6.0447,6.0432,6.0445,6.0448,6.0451,6.0455,6.036,6.0451,6.045,6.045,6.045,6.045,0,6.0232,6.0244,6.0272,6.03,6.0324,6.0311,6.0331,6.0351,6.0382,6.0398,6.0421,6.0456,6.0482,6.0489,6.0514,6.0533,6.0527,6.054,6.0538,6.0539,6.0467,6.0457,6.0545,6.0544,6.0544,6.0544,6.0544,6.0544,6.028,6.0325,6.0328,6.0379,6.039,6.0425,6.0438,6.0454,6.0467,6.0508,6.0531,6.0536,6.0547,6.0574,6.0598,6.0599,6.0608,6.0624,6.0622,6.0554,6.0544,6.0535,6.0525,6.0626,6.0626,6.0692,6.0692,6.0693]}]]